World > North America > United States > New York

Hourly New Lebanon, NY Regional Weather

Feedback E-mail the Weather

Latest News

New Lebanon, NY Weather Maps

°F °C°F °C
New Lebanon Weather Map
UTC Time: 5/27/2022, 22:56
Your Time:

New Lebanon, NY Regional Weather

Expires:202205272300;;668777
ASUS41 KALY 272210
RWRALY

NEW YORK STATE HOURLY WEATHER ROUNDUP
NATIONAL WEATHER SERVICE ALBANY NY
600 PM EDT FRI MAY 27 2022

NOTE: "FAIR" INDICATES FEW OR NO CLOUDS BELOW 12,000 FEET WITH NO
SIGNIFICANT WEATHER AND/OR NO OBSTRUCTIONS TO VISIBILITY.


NYZ032-033-038>043-046>054-057>066-NYZ062>081-082-084-272300-
EAST

  
CITY           SKY/WX    TMP DP  RH WIND       PRES   REMARKS
ALBANY         CLOUDY    75  65  70 SE13      29.74F                  
GLENS FALLS    MOSUNNY   74  65  73 S8        29.72F                  
POUGHKEEPSIE   LGT RAIN  74  68  81 S7        29.78F                  
NEWBURGH       LGT RAIN  73  68  83 S7        29.80F                  
MONTGOMERY     LGT RAIN  71  66  84 S8        29.78F                  
WHITE PLAINS   RAIN      70  66  87 SW9G18    29.85R FOG              
ISLIP          RAIN      66  65  96 SW17G28   29.87F VSB 1            
NEW YORK CITY  LGT RAIN  70  65  84 S10       29.83F                  
CENTRAL PARK   LGT RAIN  68  66  93 CALM      29.86S FOG              
$$


SKY/WX - Weather  TMP - Temperature  DP - Dew Point  RH - Humidity
WIND - Wind Direction/Speed PRES - Barometric Pressure VSB - Visibility
WCI - Wind Chill Index E13G22 Wind - East Wind 13 mph/Gusts of 22 mph

Trending Headlines

New Lebanon Radar Loop



New Lebanon Quick Facts


National Two Day Weather Forecast


E-mail the New Lebanon Weather Forecast

Voice your opinion or tell us about page issues...